GFSMW_925_spd_111.txt.gz
Wind_Speed
20 19 11 15 17 17 20 21 23 30 24 24 27 28 30 31 32 36 38 33 33 36 36 31 35 34 34 35 34 30 26 19 22 13 12 15 20 22 26 26 26 24 26
19 13 18 17 16 18 16 17 16 20 22 27 28 30 32 33 35 35 33 34 36 38 41 36 38 38 33 34 34 32 19 21 26 12 7 4 12 19 22 23 25 28 27
18 18 20 22 23 21 21 22 21 20 19 24 27 26 26 27 28 29 33 42 41 38 40 38 35 39 35 34 35 34 29 21 23 26 9 3 5 4 13 28 29 29 28
18 19 20 25 27 27 24 26 25 25 23 19 27 31 31 29 33 35 35 37 42 38 40 42 38 36 35 32 36 36 33 24 19 21 26 14 3 4 3 9 21 27 30
17 19 19 26 26 26 29 26 27 27 25 22 26 32 34 32 32 32 32 34 37 40 40 45 42 36 35 37 35 34 34 32 24 23 14 24 19 11 6 5 4 18 25
18 18 25 26 26 27 29 29 27 26 23 20 27 36 36 33 30 32 30 30 31 35 38 36 41 41 38 36 39 37 36 33 28 26 23 20 11 13 10 6 6 11 15
18 17 20 23 28 29 30 29 27 26 22 21 23 36 36 33 32 31 30 29 29 31 37 43 41 39 40 37 36 36 35 35 33 29 28 27 26 21 21 17 10 6 11
18 17 18 24 26 28 29 30 27 25 22 19 12 28 31 31 30 29 26 27 28 30 29 37 34 37 36 35 34 32 36 35 35 32 30 28 29 26 24 22 16 4 8
20 19 21 25 28 29 30 30 27 25 22 21 14 14 25 28 26 24 25 26 27 29 32 33 36 33 35 33 31 31 33 32 33 33 32 31 27 28 27 25 22 18 6
19 18 18 25 28 28 29 26 25 24 23 23 19 9 22 26 25 26 25 26 25 30 30 29 31 31 31 30 29 27 27 29 29 29 29 30 28 27 28 27 25 27 22
17 16 18 26 26 26 27 24 24 25 28 30 27 18 10 20 23 24 22 22 25 28 28 26 25 26 26 27 26 25 25 26 25 26 26 26 28 27 27 27 27 28 27
16 15 18 24 25 26 26 25 33 32 30 29 27 24 12 13 16 18 21 23 22 22 22 23 23 23 25 23 20 22 21 22 21 21 25 28 27 29 30 29 30 29 29
18 15 15 17 22 25 26 32 31 31 32 30 30 29 27 19 10 14 15 16 17 19 21 21 21 19 17 16 13 14 16 17 18 20 23 26 27 30 30 32 30 33 33
19 18 18 18 25 29 34 32 33 35 34 30 32 31 30 27 25 18 16 13 12 15 15 15 14 12 9 7 6 8 11 14 18 20 21 27 28 28 30 34 32 34 31
20 19 19 19 29 32 32 33 33 37 36 35 35 32 32 31 30 28 26 25 23 21 20 19 18 15 10 5 3 6 8 11 14 17 22 27 30 34 36 32 33 36 33
18 19 20 23 28 33 35 35 35 34 35 30 32 33 33 37 37 30 28 28 27 25 24 23 21 19 14 12 2 6 8 9 13 14 16 16 20 24 37 37 42 39 33
18 19 19 24 28 31 32 31 32 34 35 37 36 38 36 30 41 32 34 35 30 31 32 25 22 23 25 21 8 2 3 6 6 8 12 16 17 20 20 27 33 47 52
16 16 23 27 30 33 33 32 34 34 35 35 36 39 34 32 40 39 39 37 33 37 32 33 29 29 34 25 17 7 5 7 10 14 16 14 15 17 16 15 13 13 16
17 18 21 24 28 32 31 31 34 35 37 38 38 37 38 38 35 32 34 27 26 31 32 31 32 33 36 31 21 16 14 14 18 20 25 20 17 14 11 5 11 13 14
20 21 23 24 29 30 29 29 32 34 35 34 33 33 34 34 34 31 30 28 30 31 31 32 32 28 33 33 30 24 22 24 23 25 28 32 24 11 5 9 12 19 14
19 21 21 24 26 28 28 30 31 33 30 30 32 35 36 35 33 31 32 28 29 28 30 32 32 32 35 34 33 29 28 23 23 25 26 31 30 28 16 12 15 16 16
19 23 21 23 27 28 27 27 29 28 29 30 31 32 32 32 31 31 29 31 28 29 29 27 27 30 33 32 31 31 28 25 26 24 25 23 26 32 31 27 21 18 19
15 18 19 22 29 30 27 27 26 28 29 30 31 30 30 29 31 32 31 30 29 28 26 26 27 27 29 29 29 27 27 27 26 25 24 24 27 27 31 31 27 26 24
16 15 18 22 24 28 31 28 28 28 30 31 30 28 28 28 30 30 30 31 30 27 25 25 23 23 25 28 27 23 21 20 21 23 28 30 31 34 32 32 33 31 30
13 15 17 19 21 22 28 30 29 28 25 25 27 26 25 24 22 25 29 27 30 30 25 23 22 23 23 25 22 20 17 14 16 16 21 26 27 27 28 30 31 29 28
11 14 15 17 18 19 21 23 23 23 23 24 24 24 22 21 20 18 17 21 23 25 25 26 24 20 20 18 19 20 19 17 17 19 20 20 20 21 19 20 21 25 23

GFSMW_925_spd_114.txt.gz
Wind_Speed
16 16 17 16 19 19 21 19 21 16 16 20 25 26 28 29 32 32 32 32 32 33 33 30 28 33 35 33 29 25 24 22 19 14 14 14 14 17 21 20 19 21 21
14 15 18 19 19 20 21 21 21 20 18 18 23 26 27 30 32 33 33 32 32 32 35 34 33 35 31 31 31 32 22 19 25 13 8 4 12 20 22 22 22 21 20
16 17 19 20 21 22 22 23 24 23 23 21 21 25 28 28 29 30 30 33 35 36 39 36 33 34 33 33 33 33 30 23 25 27 13 5 8 9 15 22 24 22 23
17 16 19 23 22 23 23 24 25 26 24 23 23 25 29 30 31 30 32 35 37 36 36 36 37 36 35 34 36 33 33 26 21 24 28 23 9 6 4 10 15 21 21
18 18 18 24 27 24 24 24 25 27 25 24 25 27 30 31 30 30 31 34 34 38 37 37 37 37 37 37 33 33 33 33 25 26 18 24 22 19 7 9 8 12 18
18 18 23 24 24 25 26 27 27 26 27 24 25 29 32 35 31 31 30 31 33 35 39 39 38 39 37 36 38 34 34 32 28 25 26 23 19 19 14 9 15 17 16
18 19 20 23 25 27 28 28 28 29 27 27 26 27 33 39 37 33 31 28 29 31 35 38 39 38 38 35 34 33 33 35 32 28 27 24 24 20 22 21 15 13 19
16 18 20 25 26 28 27 27 28 29 30 30 28 27 29 34 38 34 31 30 27 30 33 39 38 38 36 35 36 35 34 33 33 31 28 26 24 24 25 22 19 6 10
19 20 22 26 27 29 29 29 29 30 31 32 30 25 23 29 34 33 29 26 27 28 29 34 34 35 35 36 35 34 34 33 35 32 30 27 25 25 25 24 23 17 9
20 19 20 27 28 29 30 29 29 30 31 31 26 22 20 23 29 25 24 25 24 27 29 31 35 34 35 35 35 33 31 31 30 28 28 27 25 23 24 24 24 25 22
17 16 19 28 29 30 30 30 29 29 29 26 23 18 13 17 22 24 23 24 23 24 25 29 29 31 32 33 32 29 29 29 24 25 26 27 24 24 25 26 26 24 23
17 17 22 26 28 30 32 30 31 27 26 25 20 20 19 11 14 17 21 20 20 20 22 23 28 28 28 27 29 28 25 24 22 24 25 25 22 22 25 24 25 26 26
18 17 20 21 26 28 28 28 28 28 28 27 26 28 31 29 26 9 12 15 17 17 18 20 18 16 15 18 20 20 21 20 21 18 17 19 19 22 24 26 27 26 26
16 16 16 19 24 25 27 29 32 34 31 34 35 34 35 31 29 28 24 22 22 21 22 22 21 20 17 16 14 13 12 11 11 11 11 15 17 20 23 24 26 29 30
18 18 19 16 25 27 30 32 34 36 39 32 38 35 33 35 34 35 31 30 32 30 28 28 25 20 17 11 7 8 6 4 4 7 8 9 12 20 25 27 25 25 27
18 19 19 24 26 32 32 33 35 37 37 39 38 38 35 39 38 41 34 36 35 34 32 30 26 23 20 13 7 6 8 4 1 4 7 9 13 14 22 25 31 34 34
16 17 18 24 29 30 30 31 32 34 37 38 38 36 38 40 35 39 41 41 35 35 37 36 34 33 26 18 13 10 11 8 8 9 12 11 11 15 18 19 22 21 24
17 17 23 26 29 31 33 32 34 36 37 36 38 39 40 40 39 43 38 40 30 37 34 35 33 36 34 25 19 18 16 15 15 15 18 15 14 14 16 13 12 10 12
17 18 20 22 25 29 30 31 35 35 36 38 38 37 38 37 37 41 36 36 34 39 40 41 38 37 36 31 24 20 20 19 20 19 23 20 17 17 11 7 6 7 9
18 18 20 20 25 28 28 29 31 33 34 33 33 35 36 34 36 33 28 31 34 34 31 38 35 34 35 37 32 27 24 23 18 19 22 27 24 22 13 11 8 12 15
18 17 20 22 24 24 24 27 29 31 28 28 31 32 33 33 33 31 32 29 30 33 30 29 32 33 38 36 34 32 29 21 19 21 22 24 24 23 20 17 18 13 9
17 19 20 22 23 26 25 26 29 26 25 27 29 31 32 33 32 31 30 31 29 28 26 25 25 28 29 30 28 29 26 23 23 21 21 21 19 24 23 22 18 17 17
13 15 18 20 24 26 27 26 25 25 25 25 27 27 28 31 30 32 31 31 29 27 27 26 25 25 29 30 26 24 23 22 19 18 21 24 24 23 28 27 23 21 24
13 14 17 20 21 23 25 24 24 22 24 24 23 23 25 24 27 26 27 29 29 26 26 24 25 23 26 30 31 26 22 19 16 16 18 20 21 24 26 29 29 25 24
12 14 15 17 20 20 22 23 23 22 21 22 23 23 22 22 20 22 26 24 28 26 25 24 21 24 23 24 23 23 20 17 16 14 16 19 20 19 20 21 20 19 19
11 13 15 16 17 18 19 21 22 21 20 20 20 21 20 20 20 19 16 20 22 24 25 23 24 18 21 21 19 20 23 19 17 16 18 18 18 18 18 17 16 17 17

GFSMW_925_spd_117.txt.gz
Wind_Speed
11 14 16 17 18 18 20 20 18 16 16 16 17 23 26 28 28 32 30 31 33 33 34 33 32 33 33 31 30 27 26 24 19 18 16 16 19 20 19 19 17 19 21
11 13 16 18 19 20 21 21 21 19 17 17 19 20 24 28 30 30 33 34 33 34 36 36 32 33 31 32 32 31 26 24 24 17 12 4 8 19 22 21 20 18 18
13 14 17 20 20 21 21 22 23 22 20 18 21 23 26 29 26 32 32 34 36 35 38 38 36 33 31 32 32 32 29 24 23 25 12 5 8 10 22 25 24 21 23
14 16 18 23 23 24 22 21 23 24 22 20 20 22 25 26 27 28 31 33 36 38 37 38 38 33 33 32 37 36 34 28 23 25 28 23 12 6 6 13 18 20 21
15 17 19 26 28 26 25 25 24 24 23 22 22 23 25 27 30 31 33 35 32 38 37 38 36 35 33 35 34 34 35 33 28 27 25 27 24 19 11 6 10 15 17
18 18 24 27 28 28 27 28 27 25 23 22 22 23 26 28 29 30 29 32 34 34 37 38 37 35 34 33 34 35 35 33 31 28 28 23 21 18 12 9 11 12 18
18 19 21 26 29 31 31 29 27 28 26 26 24 24 26 28 31 33 34 28 30 33 36 38 37 37 37 36 33 34 35 35 32 26 25 27 24 25 21 19 13 10 18
17 19 21 25 27 29 30 30 30 29 27 26 26 26 27 27 30 33 35 36 32 33 32 35 37 38 39 36 34 33 33 34 34 33 31 31 25 22 22 19 17 8 10
17 18 22 25 28 28 30 29 29 28 27 27 27 28 29 29 31 35 35 36 40 33 30 31 36 37 35 37 36 34 35 35 35 33 34 27 27 26 23 24 23 17 10
17 17 21 26 28 30 29 28 27 26 28 27 26 27 30 30 33 37 36 34 37 27 27 30 34 35 36 35 34 32 31 32 33 32 29 31 30 23 21 22 21 20 19
16 13 18 25 26 27 29 30 29 29 29 27 29 30 25 25 29 36 34 32 34 28 26 29 32 33 34 33 33 31 29 32 30 29 30 28 25 21 22 24 21 21 20
16 14 20 24 25 29 30 31 32 33 31 29 32 24 20 17 16 10 25 26 26 26 25 28 28 29 29 28 29 27 26 29 27 27 26 24 19 21 21 21 24 25 22
18 19 20 22 26 29 31 33 34 35 35 33 28 22 21 26 35 33 30 17 6 9 9 11 14 17 21 25 26 26 26 25 27 23 20 16 19 22 23 21 22 23 23
17 17 18 21 27 28 29 31 34 36 35 28 29 26 34 38 38 38 39 36 31 29 25 24 23 20 18 18 18 21 22 20 19 19 16 11 10 9 6 7 14 15 20
17 17 17 19 27 30 30 30 32 35 34 33 36 36 38 40 41 41 40 39 40 36 32 29 29 27 26 19 14 16 16 16 13 10 9 5 2 2 7 11 14 18 18
16 17 18 24 27 29 29 29 33 34 34 38 39 40 39 42 40 42 41 43 42 39 39 38 35 35 33 23 18 15 14 14 11 9 4 2 3 7 9 12 11 14 18
15 17 19 24 28 28 30 30 31 34 36 37 39 40 39 44 42 40 40 43 41 37 40 38 36 41 39 31 26 20 18 20 17 14 10 8 9 10 11 10 8 10 9
14 15 21 24 26 28 30 29 32 35 37 38 39 41 44 40 39 38 38 40 37 34 41 39 39 41 44 36 31 29 24 24 20 25 22 16 16 16 13 8 5 5 7
15 17 19 21 24 28 29 27 31 33 35 36 37 37 37 38 36 35 33 36 30 37 39 34 40 37 46 45 35 33 30 25 27 27 31 25 22 20 11 6 5 6 9
14 16 18 20 24 27 26 28 29 31 32 32 31 32 33 34 33 32 33 33 33 34 38 38 33 38 38 47 38 39 33 28 24 22 25 30 25 21 18 15 10 9 13
14 14 16 18 22 25 24 26 28 30 27 28 30 33 33 33 33 33 36 33 33 34 32 33 39 40 39 33 35 36 29 23 21 27 28 25 25 26 22 19 17 13 10
13 15 16 19 21 24 24 25 27 25 24 25 28 29 32 30 31 33 32 33 33 31 29 29 28 30 33 35 35 30 27 25 24 23 23 24 24 24 26 25 21 19 16
11 12 14 16 19 22 24 24 25 23 25 25 27 28 26 31 31 31 33 31 29 28 27 27 26 26 29 33 31 28 27 25 20 20 20 21 23 24 25 29 28 27 24
10 10 13 15 18 20 21 21 24 21 22 24 24 23 26 24 27 29 28 31 31 28 27 25 25 25 27 29 29 30 26 23 22 20 19 19 18 21 22 26 26 24 21
8 10 12 14 16 17 20 22 23 23 20 19 21 21 22 23 21 20 24 24 27 28 26 26 23 26 27 29 25 24 27 23 19 16 18 21 21 22 22 22 22 22 22
9 11 12 14 15 16 18 22 22 22 22 21 22 24 23 22 23 22 18 19 20 23 25 24 24 20 22 25 25 21 21 23 19 18 19 19 20 19 19 19 19 20 20

GFSMW_925_spd_120.txt.gz
Wind_Speed
12 15 17 18 20 23 25 25 25 25 26 24 23 23 21 25 26 28 28 31 33 35 37 39 29 35 40 28 28 29 30 29 25 22 19 21 23 24 25 21 21 26 24
13 15 18 20 22 21 22 25 24 22 23 25 26 27 28 28 29 26 33 36 33 36 38 39 36 34 35 35 27 29 26 24 30 18 12 3 11 24 27 25 25 26 24
13 15 18 21 22 23 25 25 26 25 24 26 26 26 28 27 27 28 26 36 40 39 40 40 40 36 35 37 39 34 30 26 28 29 13 3 5 6 21 29 29 21 22
15 15 18 20 21 23 25 26 27 28 27 26 26 24 24 25 28 30 29 26 38 40 40 42 39 39 39 35 38 40 38 27 25 27 32 19 7 4 3 20 28 29 27
16 16 18 23 24 25 26 27 28 27 30 29 26 24 25 26 28 30 29 30 29 37 42 42 43 41 38 39 39 36 37 38 30 29 26 26 24 17 5 3 9 23 26
14 15 22 24 25 27 27 27 29 28 29 31 30 28 28 27 29 31 31 30 27 29 40 43 43 43 44 42 31 34 35 37 36 31 30 26 18 19 11 4 5 10 20
14 16 18 24 26 28 29 28 29 29 30 30 29 30 29 29 29 31 33 31 30 27 33 39 43 43 41 38 34 33 34 37 35 35 31 32 27 22 24 16 8 4 15
16 18 22 25 27 29 30 29 29 29 29 29 28 29 30 30 30 30 33 35 33 30 30 38 43 45 45 39 38 34 35 36 37 34 33 33 31 27 26 25 17 4 7
16 17 23 25 26 28 30 30 30 29 28 29 29 28 29 29 31 33 33 36 40 36 36 35 40 45 42 41 36 33 35 36 38 35 36 33 31 28 27 29 23 11 4
14 14 19 23 25 27 29 28 29 29 29 28 27 26 28 30 31 32 35 37 41 40 37 30 37 39 38 41 36 34 32 34 35 34 33 34 29 28 31 30 27 24 14
13 12 17 23 24 26 27 29 29 29 30 30 26 26 22 21 21 24 31 40 39 39 39 32 22 19 31 38 40 31 33 32 32 31 31 33 31 26 26 25 24 25 24
14 13 19 24 25 28 26 28 32 33 33 29 26 25 25 23 23 21 21 8 35 37 35 31 33 31 44 39 36 33 32 32 29 31 30 30 29 29 27 25 22 24 27
15 14 18 21 24 28 27 30 31 34 34 32 29 30 26 27 28 26 28 33 33 32 24 5 3 10 15 27 31 33 33 32 30 27 30 26 26 25 24 20 20 18 18
14 14 14 20 24 28 27 30 33 36 36 35 34 35 34 31 28 29 38 36 39 44 36 31 28 26 16 8 11 31 29 26 25 26 19 17 18 15 16 14 7 2 2
15 14 13 17 24 29 30 31 34 36 36 36 39 37 32 31 30 40 41 42 47 52 36 37 38 37 36 27 21 27 28 28 28 26 21 20 18 13 8 7 11 8 11
13 14 15 22 25 28 30 30 32 35 33 35 34 35 35 37 37 47 46 49 49 41 38 46 46 43 41 38 29 31 31 29 26 25 22 14 13 10 11 7 3 3 6
13 14 15 20 25 28 30 29 30 33 36 36 38 38 39 39 44 43 44 45 40 41 47 46 44 44 45 40 39 41 40 35 35 30 27 23 20 17 10 8 6 7 6
12 13 18 20 23 25 26 25 28 31 33 34 36 38 37 39 40 41 40 49 37 42 42 44 43 47 50 43 37 46 44 33 42 37 36 31 30 24 15 8 7 8 8
11 13 16 19 21 23 25 25 27 30 31 34 34 35 36 37 39 38 39 43 34 41 43 40 51 38 50 47 51 47 36 27 41 31 37 38 33 30 20 14 12 10 14
11 13 16 17 23 24 23 25 28 30 32 32 34 32 34 37 36 36 36 32 31 32 38 36 42 39 42 43 46 34 39 36 35 37 37 40 33 27 27 27 20 18 17
12 12 15 18 20 24 23 25 27 29 26 28 28 37 35 33 33 30 32 31 32 33 31 33 36 38 38 39 38 37 31 27 29 28 31 36 31 34 33 28 23 19 16
9 13 14 17 20 23 23 23 24 25 25 25 29 27 34 33 33 36 34 33 31 30 33 32 31 34 37 38 39 34 30 31 26 26 29 27 25 26 30 32 29 27 27
6 8 14 17 21 22 23 22 26 22 26 25 26 29 26 32 30 34 34 33 32 32 30 30 29 30 33 33 32 31 30 31 28 26 25 24 24 24 28 28 27 26 24
8 9 10 15 17 20 24 23 25 24 21 25 25 25 27 23 29 26 31 31 31 29 29 27 27 26 30 34 33 32 35 30 27 23 24 23 23 24 25 25 28 27 26
8 8 11 13 15 17 19 22 23 23 21 20 24 22 22 24 19 23 23 24 27 28 27 26 25 28 29 32 29 27 30 28 22 21 23 25 24 23 24 24 23 24 24
10 11 12 13 14 15 17 20 22 22 21 20 20 24 22 22 22 21 18 20 19 22 24 25 26 23 25 27 27 24 23 25 23 23 23 22 23 23 23 22 21 23 24

GFSMW_925_spd_123.txt.gz
Wind_Speed
15 23 27 31 32 33 33 32 32 32 32 30 30 32 32 35 37 35 27 31 34 35 44 36 35 39 44 36 35 36 39 32 33 27 26 26 27 29 28 27 26 26 25
14 20 25 29 31 30 32 30 30 30 29 28 28 27 29 28 31 33 33 31 30 37 36 31 41 42 44 38 33 37 29 25 36 19 18 4 11 29 32 30 28 31 27
14 15 22 26 27 28 28 29 31 30 29 28 31 29 29 31 29 28 29 29 27 27 38 42 50 38 42 37 41 39 35 30 31 32 13 3 5 4 18 34 32 32 31
14 15 20 22 24 25 27 29 29 30 30 27 27 28 27 26 27 31 32 34 32 28 25 42 45 48 46 41 43 38 38 34 30 30 37 20 13 4 2 16 34 38 36
15 14 19 23 25 28 30 28 29 27 28 30 26 27 29 28 29 34 35 35 35 31 30 25 42 44 48 44 41 41 39 39 34 38 32 27 19 14 3 3 8 28 35
17 20 27 28 29 30 29 30 28 28 29 30 28 28 29 29 29 29 34 34 33 32 33 32 27 41 42 43 43 47 43 41 32 29 27 32 24 14 5 3 5 11 25
13 14 17 23 24 26 28 27 27 29 29 28 30 29 28 28 30 30 29 33 34 32 28 27 31 28 41 43 42 41 37 28 28 37 28 30 31 28 24 13 5 3 10
12 12 17 19 22 25 27 28 28 29 30 30 30 29 28 27 27 29 30 34 35 35 32 34 32 32 33 38 40 40 35 35 49 41 34 34 32 28 25 26 15 2 6
11 12 18 21 24 27 30 30 30 30 30 30 29 29 28 26 26 29 30 33 35 36 36 32 32 35 34 37 39 37 36 34 42 37 45 43 33 30 29 30 25 13 5
10 11 17 23 27 29 31 28 30 30 30 30 28 25 27 26 25 27 29 31 35 35 37 37 33 35 36 36 37 36 36 33 34 35 37 34 30 31 31 33 34 29 15
10 11 19 24 26 28 30 29 30 31 34 33 30 25 24 20 16 14 15 18 24 40 40 33 30 32 34 36 34 32 26 28 36 35 35 33 33 30 30 31 32 28 25
7 10 17 21 26 30 31 30 33 34 34 32 30 27 25 24 20 19 17 18 20 12 9 17 18 24 27 28 32 32 33 43 41 34 32 34 34 31 28 29 30 28 32
9 11 17 23 26 29 30 28 31 32 34 31 30 30 30 30 28 27 27 26 26 26 24 23 22 18 11 9 12 27 27 27 36 31 33 33 30 28 26 29 28 23 19
12 12 14 21 26 27 28 27 31 33 33 33 31 32 35 32 32 32 31 30 34 36 35 36 35 35 30 25 12 10 26 32 28 15 19 18 20 21 26 26 24 20 17
12 12 13 19 24 25 27 28 32 35 35 33 35 36 34 35 33 34 33 35 41 38 40 44 43 40 48 45 31 31 23 23 28 26 21 21 20 16 14 16 17 18 17
11 11 15 19 21 24 26 28 31 32 33 34 36 36 37 37 37 38 33 40 42 40 42 46 45 43 49 49 44 44 40 37 32 32 29 23 19 25 19 15 10 7 7
9 11 14 17 20 23 26 27 28 28 31 31 34 37 35 36 35 34 36 41 45 39 48 44 47 58 52 45 47 40 52 39 42 40 30 34 29 21 18 22 19 20 18
8 11 13 17 20 22 25 24 26 30 31 33 33 35 34 35 35 36 37 34 35 38 38 38 38 48 46 48 50 44 42 38 45 46 42 40 34 24 19 21 22 23 22
8 10 11 13 17 22 23 24 26 28 31 34 34 34 36 34 35 35 35 34 33 36 37 38 43 43 46 49 43 42 39 39 39 42 44 45 35 31 30 29 25 26 23
9 11 13 14 21 24 25 27 26 28 29 27 31 30 31 32 31 31 31 31 34 33 34 39 42 41 43 49 47 40 33 34 29 30 33 38 41 40 32 39 32 29 22
11 14 16 19 21 23 26 28 27 30 26 27 28 34 34 34 33 33 35 32 32 35 36 37 41 44 44 45 44 43 39 31 29 33 35 38 34 31 32 31 27 24 26
12 15 17 19 23 23 26 28 28 26 24 29 27 34 35 36 41 39 37 38 34 34 34 35 35 38 39 39 40 37 35 31 29 29 28 29 27 27 29 31 27 26 22
11 15 16 17 21 24 26 27 25 21 26 27 29 26 31 34 36 36 33 33 34 33 33 32 32 33 36 36 34 35 33 32 30 28 26 26 28 26 30 30 30 29 26
11 11 14 18 21 22 23 23 24 21 23 27 26 28 23 26 30 32 30 28 31 30 29 29 29 30 34 37 34 33 34 32 28 28 28 26 25 28 28 30 32 30 28
13 14 16 18 18 19 21 23 21 21 22 20 24 23 25 26 22 22 27 28 29 30 28 27 27 25 29 33 29 30 32 29 25 24 26 28 27 27 27 26 26 27 28
17 17 17 17 15 14 18 19 23 20 21 19 20 24 23 24 25 26 27 23 22 24 29 31 26 26 25 27 28 25 26 26 23 26 26 25 24 24 24 24 25 25 26